Regional Weather Roundup
Issued by NWS

Home | Current Version | Previous Version | Graphics & Text | Print | Product List | Glossary On
Versions: 1 2 3 4 5 6 7 8 9 10 11 12 13 14 15 16 17 18 19 20 21 22 23 24 25 26 27 28 29 30 31 32 33 34 35 36 37 38 39 40 41 42 43 44 45 46 47 48 49 50
000
ASUS43 KDMX 240601
RWRIA

WEATHER ROUNDUP FOR IOWA
NATIONAL WEATHER SERVICE DES MOINES IA
1200 AM CST WED JAN 24 2018

NOTE: "FAIR" INDICATES FEW OR NO CLOUDS BELOW 12,000 FEET WITH NO
SIGNIFICANT WEATHER AND/OR OBSTRUCTIONS TO VISIBILITY.

* - THESE STATIONS ARE NOT NWS STATIONS...THUS NOT UNDER NWS
QUALITY CONTROL.  THEY ALSO DO NOT REPORT WEATHER SUCH
AS PRECIPITATION OR FOG.

IAZ001>003-012>014-020>022-031>034-043>046-240700-
   NORTHWEST IOWA

CITY           SKY/WX    TMP DP  RH WIND       PRES   REMARKS
CARROLL *      CLOUDY    25  23  93 NW8       30.21R WCI  16
CHEROKEE *     CLOUDY    24  24 100 NW7       30.22R FOG     WCI  16
DENISON *      CLOUDY    21  21 100 CALM      30.22S
LE MARS *      CLOUDY    23  21  93 CALM      30.22S FOG
ORANGE CITY *  CLOUDY    25  25 100 NW8       30.20R WCI  16
SHELDON *      CLOUDY    25  25 100 NW6       30.18S WCI  18
SIOUX CITY     FOG       14  13  95 CALM      30.22R VSB 1/4
6HR MIN TEMP:  13; 6HR MAX TEMP:  25;

SPENCER        MIX PCPN  23  20  88 NW7       30.20R WCI  15
6HR MIN TEMP:  22; 6HR MAX TEMP:  24; 6HR PCP: TRACE;

STORM LAKE *   CLOUDY    23  21  93 NW10      30.19S FOG     WCI  12
$$

IAZ055>058-069>071-079>083-090>094-240700-
   SOUTHWEST IOWA

CITY           SKY/WX    TMP DP  RH WIND       PRES   REMARKS
ATLANTIC *     MOCLDY    23  23 100 CALM      30.21F FOG
AUDUBON *      MOCLDY    25  21  86 CALM      30.20F
CLARINDA *     CLEAR     19  21 100 CALM        N/A
COUNCIL BLFS * CLEAR     21  21 100 SW6       30.21S FOG     WCI  14
CRESTON *      CLOUDY    25  23  93 W7        30.22S FOG     WCI  17
HARLAN  *      PTCLDY    19  19 100 SW3       30.24S
LAMONI         CLOUDY    25  21  85 W5        30.22S WCI  19
6HR MIN TEMP:  25; 6HR MAX TEMP:  27;

RED OAK *      CLEAR     19  19 100 CALM      30.23S FOG
SHENANDOAH *   CLEAR     21  21 100 CALM      30.24S
$$

IAZ047>049-059>061-072>074-084-240700-
   CENTRAL IOWA

CITY           SKY/WX    TMP DP  RH WIND       PRES   REMARKS
AMES           CLOUDY    26  24  92 NW5       30.22S WCI  20
6HR MIN TEMP:  24; 6HR MAX TEMP:  26;

ANKENY *       CLOUDY    25  21  86 W3        30.24S
BOONE *        CLOUDY    25  23  93 NW8       30.20S WCI  16
CHARITON *     CLOUDY    25  23  93 CALM      30.22S
DES MOINES     CLOUDY    26  21  81 NW5       30.23R WCI  20
6HR MIN TEMP:  25; 6HR MAX TEMP:  27;

GRINNELL*      CLOUDY    24  20  86 NW5       30.23S WCI  18
KNOXVILLE *    CLOUDY    27  21  80 NW3       30.22S
MARSHALLTOWN   CLOUDY    24  20  84 W8        30.21S WCI  15
6HR MIN TEMP:  22; 6HR MAX TEMP:  26;

NEWTON *       CLOUDY    25  21  86 W5        30.23S WCI  19
PELLA *        CLOUDY    26  21  81 NW7       30.25S WCI  18
$$

IAZ004>006-015-016-023>025-035-036-240700-
   NORTH CENTRAL IOWA

CITY           SKY/WX    TMP DP  RH WIND       PRES   REMARKS
CLARION *      CLOUDY    23  25 100 W6        30.20S WCI  16
ESTHERVILLE    CLOUDY    22  20  92 W7        30.19R WCI  13
6HR MIN TEMP:  19; 6HR MAX TEMP:  22;

FORT DODGE *   CLOUDY    24  21  88 W6        30.21R WCI  17
MASON CITY     CLOUDY    21  17  84 W8        30.19F WCI  11
6HR MIN TEMP:  15; 6HR MAX TEMP:  22;

FOREST CITY *    N/A     21  21 100 W3        30.19S
WEBSTER CITY * CLOUDY    25  21  86 NW3       30.19R
IOWA FALLS *   CLOUDY    25  22  88 W9        30.21S WCI  15
$$

IAZ007>011-017>019-026>030-037>042-050>054-066-240700-
   NORTHEAST IOWA

CITY           SKY/WX    TMP DP  RH WIND       PRES   REMARKS
CEDAR RAPIDS   CLOUDY    24  17  74 NW8       30.20R WCI  15
6HR MIN TEMP:  24; 6HR MAX TEMP:  26;

CHARLES CITY * CLOUDY    21  21 100 NW6       30.19S WCI  14
CLINTON *      CLOUDY    25  21  85 N9        30.21R WCI  15
DECORAH *      MOCLDY    18  16  93 CALM      30.18R
DUBUQUE        CLOUDY    22  18  85 N6        30.17S WCI  14
6HR MIN TEMP:  22; 6HR MAX TEMP:  23;

MONTICELLO *   CLOUDY    23  19  86 NW10      30.20R WCI  12
OELWEIN *      MOCLDY    21  21 100 NW3       30.19F
WATERLOO         N/A     21  17  84 W3        30.21S
6HR MIN TEMP:  19; 6HR MAX TEMP:  23;

$$

IAZ064-065-067-068-078-240700-
   EAST CENTRAL IOWA

CITY           SKY/WX    TMP DP  RH WIND       PRES   REMARKS
DAVENPORT      CLOUDY    26  18  71 NW8       30.22R WCI  18
6HR MIN TEMP:  26; 6HR MAX TEMP:  28;

IOWA CITY      CLOUDY    27  17  66 NW8       30.24R WCI  19
6HR MIN TEMP:  27; 6HR MAX TEMP:  29;

MT. PLEASANT * CLOUDY    28  19  69 W6        30.23S WCI  22
MUSCATINE *    CLOUDY    27  19  74 NW6       30.24S WCI  20
QUAD CITIES    CLOUDY    26  19  74 W10       30.21S WCI  16
6HR MIN TEMP:  26; 6HR MAX TEMP:  29;

$$

IAZ062-063-075>077-085>089-095>099-240700-
   SOUTHEAST IOWA

CITY           SKY/WX    TMP DP  RH WIND       PRES   REMARKS
BURLINGTON     CLOUDY    27  19  72 W7        30.22S WCI  19
6HR MIN TEMP:  27; 6HR MAX TEMP:  29;

FAIRFIELD *    CLOUDY    27  19  74 NW9       30.23R WCI  17
FORT MADISON * CLOUDY    27  21  80 NW9       30.24S WCI  17
KEOKUK *       CLOUDY    28  21  74 CALM      30.23F
OSKALOOSA *    CLOUDY    26  21  82 NW6       30.24S WCI  19
OTTUMWA        CLOUDY    26  19  74 NW7       30.23R WCI  18
6HR MIN TEMP:  26; 6HR MAX TEMP:  28;

WASHINGTON *   CLOUDY    27  21  80 NW12      30.24R WCI  16
$$

ABBREVIATIONS USED IN REMARKS
   TC - TEMPERATURES IN CELSIUS
  WCI - WIND CHILL INDEX
   HX - HEAT INDEX
  VSB - VISIBILITY
$$




USA.gov is the U.S. government's official web portal to all federal, state and local government web resources and services.